Location: STAR School
(35.3054°N, 111.2976°W)
Time: 15:11:15
(UTC-07:00)

Vanguard 1 - Pass Details

Date: 24 October 2019
Orbit: 652 x 3831 km, 34.2° (Epoch: 20 November)

Event Time Altitude Azimuth Distance (km) Brightness Sun altitude
Rises 23:34:20 0° 283° (WNW) 5,227 14.0 -65.1°
Enters shadow 23:36:56 - 279° (W) 4,637 13.6 -65.2°
Exits shadow 00:16:59 - 134° (SE) 7,831 14.5 -66.3°
Sets 00:17:41 0° 133° (SE) 7,960 14.5 -66.3°
